| time (UTC) | temp F | wind direction | speed MPH | gust MPH | rain 1hr in | rain 24hr in | rain mn in | humidity % | barometer mb |
| 20260509215259 | 52 | 213 | 2.0 | 8.0 | 0.05 | 0.38 | 0.38 | 96 | 1006.8 |
| 20260509205259 | 52 | 221 | 0.0 | 8.0 | 0.00 | 0.33 | 0.33 | 97 | 1007.3 |
| 20260509195258 | 51 | 196 | 2.0 | 6.0 | 0.01 | 0.33 | 0.33 | 97 | 1007.7 |
| 20260509175256 | 51 | 194 | 2.0 | 8.0 | 0.00 | 0.27 | 0.27 | 96 | 1008.0 |
| 20260509165255 | 50 | 209 | 1.0 | 8.0 | 0.00 | 0.27 | 0.27 | 97 | 1008.0 |
| 20260509155255 | 49 | 166 | 1.0 | 9.0 | 0.01 | 0.27 | 0.27 | 97 | 1008.3 |
| 20260509145254 | 49 | 152 | 6.0 | 11.0 | 0.02 | 0.26 | 0.26 | 97 | 1009.0 |
| 20260509135254 | 48 | 156 | 0.0 | 6.0 | 0.03 | 0.24 | 0.24 | 97 | 1009.0 |
| 20260509125253 | 47 | 166 | 0.0 | 6.0 | 0.07 | 0.21 | 0.21 | 97 | 1009.5 |
| 20260509115252 | 47 | 181 | 1.0 | 9.0 | 0.04 | 0.14 | 0.14 | 97 | 1009.7 |
| 20260509105252 | 46 | 145 | 3.0 | 8.0 | 0.07 | 0.10 | 0.10 | 97 | 1009.5 |
| 20260509085251 | 46 | 180 | 0.0 | 5.0 | 0.01 | 0.03 | 0.03 | 96 | 1009.8 |
| 20260509075250 | 46 | 241 | 1.0 | 5.0 | 0.00 | 0.02 | 0.02 | 95 | 1010.5 |
| 20260509065250 | 46 | 201 | 0.0 | 3.0 | 0.02 | 0.02 | 0.02 | 94 | 1010.2 |
| 20260509045318 | 45 | 118 | 0.0 | 2.0 | 0.00 | 0.00 | 0.00 | 81 | 1010.8 |
| 20260509035317 | 45 | 118 | 0.0 | 3.0 | 0.00 | 0.00 | 0.00 | 78 | 1011.0 |
| 20260509025316 | 46 | 121 | 0.0 | 5.0 | 0.00 | 0.00 | 0.00 | 80 | 1011.2 |
| 20260509015315 | 47 | 161 | 1.0 | 3.0 | 0.00 | 0.00 | 0.00 | 72 | 1011.0 |
| 20260509005315 | 48 | 161 | 1.0 | 3.0 | 0.00 | 0.00 | 0.00 | 63 | 1010.6 |
| 20260508235314 | 50 | 53 | 1.0 | 5.0 | 0.00 | 0.00 | 0.00 | 60 | 1010.1 |
| 20260508225313 | 52 | 41 | 2.0 | 6.0 | 0.00 | 0.00 | 0.00 | 55 | 1009.7 |